Weather reports worldwide

Advertisment
Northolt, United Kingdom (3672): temperature & dewpoint: 19.06.2017 23:00:00 - 25.06.2017 23:00:00 (BST)Northolt, United Kingdom (3672): temperature 5cm: 19.06.2017 23:00:00 - 25.06.2017 23:00:00 (BST)Northolt, United Kingdom (3672): temperature -20cm & temperature -100cm: 19.06.2017 23:00:00 - 25.06.2017 23:00:00 (BST)Northolt, United Kingdom (3672): wind speed & gusts: 19.06.2017 23:00:00 - 25.06.2017 23:00:00 (BST)Northolt, United Kingdom (3672): wind direction: 19.06.2017 23:00:00 - 25.06.2017 23:00:00 (BST)Northolt, United Kingdom (3672): reduced air pressure: 19.06.2017 23:00:00 - 25.06.2017 23:00:00 (BST)Northolt, United Kingdom (3672): visibility: 19.06.2017 23:00:00 - 25.06.2017 23:00:00 (BST)Northolt, United Kingdom (3672): precipitation: 19.06.2017 23:00:00 - 25.06.2017 23:00:00 (BST)
Date & Time tt [°C] td [°C] tt 5cm [°C] tt -20cm [°C] tt -100cm [°C] ff [km/h] ff [kn] fx [km/h] fx [kn] dd ppp [hPa] vv [km] rr [mm]
25.06.2017 23:00:00 17,1 12,2 - - - 13 7 - - N 1013,9 30 0,0
25.06.2017 22:00:00 16,9 11,7 - - - 15 8 - - WNW 1013,5 10 0,0
25.06.2017 21:00:00 18,2 11,4 - - - 21 11 - - W 1012,7 10 0,0
25.06.2017 20:00:00 18,8 11,8 - - - 21 11 - - WNW 1012,5 10 0,0
25.06.2017 19:00:00 19,8 10,9 - - - 28 15 - - W 1011,9 10 0,0
25.06.2017 18:00:00 21,5 10,5 - - - 34 18 50 27 W 1011,5 10 0,0
25.06.2017 17:00:00 21,6 11,5 - - - 35 19 48 26 W 1011,4 10 0,0
25.06.2017 16:00:00 22,5 12,2 - - - 34 18 50 27 W 1011,3 10 0,0
25.06.2017 15:00:00 21,6 12,8 - - - 28 15 - - W 1011,1 10 0,0
25.06.2017 14:00:00 21,8 12,7 - - - 29 16 - - WSW 1011,4 10 0,0
25.06.2017 13:00:00 22,7 13,9 - - - 24 13 - - WSW 1011,7 10 0,0
25.06.2017 12:00:00 19,3 12,8 - - - 24 13 - - WSW 1012,5 10 0,0
25.06.2017 11:00:00 18,4 12,2 - - - 22 12 - - WSW 1012,6 10 0,0
25.06.2017 10:00:00 18,0 12,0 - 19,9 17,2 22 12 - - W 1012,6 10 0,0
25.06.2017 09:00:00 17,1 11,3 - - - 24 13 - - W 1012,7 35 0,0
25.06.2017 08:00:00 16,5 11,4 - - - 22 12 - - W 1012,5 10 0,0
25.06.2017 07:00:00 15,5 11,7 - - - 21 11 - - WSW 1012,4 10 0,0
25.06.2017 06:00:00 15,2 11,8 - - - 22 12 - - WSW 1012,3 30 0,0
25.06.2017 05:00:00 14,8 11,8 - - - 15 8 - - WSW 1012,0 27 0,0
25.06.2017 04:00:00 14,5 11,8 - - - 16 9 - - W 1012,3 10 0,0
25.06.2017 03:00:00 14,9 11,5 - - - 18 10 - - W 1012,3 35 0,0
25.06.2017 02:00:00 15,0 11,4 - - - 21 11 - - W 1012,3 10 0,0
25.06.2017 01:00:00 15,3 11,6 - - - 22 12 - - W 1012,5 40 0,0
25.06.2017 00:00:00 16,1 12,7 - - - 15 8 - - W 1012,6 10 0,0
24.06.2017 23:00:00 17,5 13,3 - - - 15 8 - - W 1012,5 35 0,0
24.06.2017 22:00:00 18,0 14,8 - - - 13 7 - - W 1012,1 10 0,0
24.06.2017 21:00:00 19,3 15,7 - - - 21 11 - - WSW 1011,9 10 0,0
24.06.2017 20:00:00 20,3 16,0 - - - 21 11 - - WSW 1011,6 10 0,0
24.06.2017 19:00:00 20,9 14,4 - - - 22 12 - - WSW 1011,8 10 0,0
24.06.2017 18:00:00 21,5 13,9 - - - 21 11 - - W 1012,0 10 0,0
24.06.2017 17:00:00 21,4 13,7 - - - 26 14 - - WSW 1012,3 10 0,0
24.06.2017 16:00:00 21,6 14,0 - - - 24 13 - - WSW 1012,6 10 0,0
24.06.2017 15:00:00 22,5 14,7 - - - 24 13 - - W 1012,9 10 0,0
24.06.2017 14:00:00 21,3 14,3 - - - 26 14 - - WSW 1013,4 10 0,0
24.06.2017 13:00:00 21,7 13,9 - - - 24 13 - - W 1013,6 10 0,0
24.06.2017 12:00:00 21,6 13,6 - - - 22 12 - - W 1013,7 10 0,0
24.06.2017 11:00:00 20,5 14,7 - - - 21 11 - - WSW 1013,9 10 0,0
24.06.2017 10:00:00 19,3 14,8 - 20,2 17,2 24 13 - - W 1014,1 10 0,0
24.06.2017 09:00:00 17,5 14,5 - - - 18 10 - - WSW 1014,6 10 0,0
24.06.2017 08:00:00 17,5 14,0 - - - 21 11 - - W 1014,5 10 0,0
24.06.2017 07:00:00 17,1 13,7 - - - 21 11 - - WSW 1014,3 10 0,0
24.06.2017 06:00:00 16,8 13,6 - - - 22 12 - - WSW 1014,4 24 0,0
24.06.2017 05:00:00 16,8 13,3 - - - 24 13 - - WSW 1014,4 27 0,0
24.06.2017 04:00:00 16,9 13,3 - - - 22 12 - - WSW 1014,4 26 0,0
24.06.2017 03:00:00 17,0 13,2 - - - 22 12 - - WSW 1014,8 10 0,0
24.06.2017 02:00:00 16,9 13,2 - - - 18 10 - - WSW 1015,3 10 0,0
24.06.2017 01:00:00 16,9 13,4 - - - 15 8 - - SW 1015,3 26 0,0
24.06.2017 00:00:00 17,2 13,3 - - - 21 11 - - WSW 1015,7 27 0,0
23.06.2017 23:00:00 17,9 13,3 - - - 22 12 - - WSW 1015,9 10 0,0
23.06.2017 22:00:00 19,0 13,0 - - - 24 13 - - SW 1016,0 29 0,0
23.06.2017 21:00:00 19,7 12,8 - - - 21 11 - - WSW 1016,0 10 0,0
23.06.2017 20:00:00 20,4 12,3 - - - 21 11 - - WSW 1015,9 10 0,0
23.06.2017 19:00:00 21,0 11,7 - - - 28 15 46 25 W 1015,8 10 0,0
23.06.2017 18:00:00 21,1 11,7 - - - 26 14 - - WSW 1016,0 10 0,0
23.06.2017 17:00:00 21,2 11,5 - - - 29 16 46 25 W 1016,2 10 0,0
23.06.2017 16:00:00 22,1 10,9 - - - 28 15 - - W 1016,0 10 0,0
23.06.2017 15:00:00 22,5 10,8 - - - 28 15 46 25 W 1016,1 10 0,0
23.06.2017 14:00:00 22,9 10,7 - - - 29 16 46 25 W 1016,1 10 0,0
23.06.2017 13:00:00 22,7 10,8 - - - 29 16 48 26 WSW 1016,2 10 0,0
23.06.2017 12:00:00 22,2 10,5 - - - 29 16 - - W 1016,2 10 0,0
23.06.2017 11:00:00 20,2 9,7 - - - 31 17 - - W 1016,5 10 0,0
23.06.2017 10:00:00 19,0 10,4 - 20,7 17,0 24 13 - - W 1016,4 10 0,0
23.06.2017 09:00:00 17,0 10,6 - - - 22 12 - - W 1016,6 10 0,0
23.06.2017 08:00:00 15,2 10,5 - - - 21 11 - - W 1016,0 10 0,0
23.06.2017 07:00:00 14,3 10,5 - - - 16 9 - - W 1015,6 10 0,0
23.06.2017 06:00:00 13,1 10,4 - - - 15 8 - - WSW 1015,6 25 0,0
23.06.2017 05:00:00 12,9 10,5 - - - 13 7 - - WSW 1015,6 27 0,0
23.06.2017 04:00:00 13,2 10,9 - - - 9 5 - - W 1015,4 29 0,0
23.06.2017 03:00:00 13,6 11,0 - - - 16 9 - - W 1015,3 30 0,0
23.06.2017 02:00:00 14,8 11,5 - - - 15 8 - - W 1015,2 10 0,0
23.06.2017 01:00:00 16,2 12,6 - - - 18 10 - - W 1015,0 10 0,0
23.06.2017 00:00:00 17,2 13,9 - - - 16 9 - - W 1014,6 24 0,0
22.06.2017 23:00:00 18,2 14,1 - - - 15 8 - - WNW 1014,6 10 0,0
22.06.2017 22:00:00 19,2 14,1 - - - 15 8 - - W 1013,9 10 0,0
22.06.2017 21:00:00 20,2 13,9 - - - 18 10 - - W 1013,3 10 0,0
22.06.2017 20:00:00 21,5 13,9 - - - 21 11 - - W 1012,9 10 0,0
22.06.2017 19:00:00 22,3 14,1 - - - 16 9 - - W 1012,7 10 0,0
22.06.2017 18:00:00 21,6 14,1 - - - 21 11 - - WNW 1012,7 10 0,0
22.06.2017 17:00:00 21,7 14,5 - - - 21 11 - - W 1012,4 10 0,0
22.06.2017 16:00:00 21,7 14,1 - - - 24 13 - - W 1012,0 10 0,0
22.06.2017 15:00:00 21,9 13,9 - - - 29 16 - - W 1011,9 10 0,0
22.06.2017 14:00:00 21,7 13,0 - - - 24 13 - - W 1011,7 10 0,0
22.06.2017 13:00:00 22,0 13,1 - - - 29 16 46 25 WSW 1011,3 10 0,0
22.06.2017 12:00:00 21,2 13,3 - - - 28 15 - - W 1011,3 10 0,0
22.06.2017 11:00:00 20,4 13,5 - - - 24 13 - - W 1011,7 10 0,0
22.06.2017 10:00:00 20,1 14,6 - 21,5 16,9 22 12 - - W 1011,2 10 0,0
22.06.2017 09:00:00 20,1 16,1 - - - 18 10 - - WSW 1011,0 10 0,0
22.06.2017 08:00:00 18,8 16,2 - - - 16 9 - - WSW 1011,2 7 0,0
22.06.2017 07:00:00 17,7 15,8 - - - 22 12 - - WSW 1011,0 7 0,0
22.06.2017 06:00:00 18,5 15,7 - - - 18 10 - - W 1010,6 10 0,0
22.06.2017 05:00:00 18,9 15,5 - - - 11 6 - - WSW 1010,4 10 0,0
22.06.2017 04:00:00 19,8 15,7 - - - 9 5 - - WSW 1010,6 10 0,0
22.06.2017 03:00:00 20,6 16,7 - - - 11 6 - - SW 1010,9 17 0,0
22.06.2017 02:00:00 21,0 17,5 - - - 11 6 - - WSW 1011,4 10 0,0
22.06.2017 01:00:00 21,6 17,7 - - - 8 4 - - SSW 1011,2 16 0,0
22.06.2017 00:00:00 23,0 18,1 - - - 9 5 - - SW 1011,6 17 0,0
21.06.2017 23:00:00 24,4 18,5 - - - 13 7 - - SSW 1011,4 10 0,0
21.06.2017 22:00:00 25,8 18,6 - - - 11 6 - - SSW 1011,6 10 0,0
21.06.2017 21:00:00 28,0 18,0 - - - 15 8 - - SSW 1011,3 10 0,0
21.06.2017 20:00:00 29,7 17,8 - - - 15 8 - - SSW 1011,3 10 0,0
21.06.2017 19:00:00 32,1 16,2 - - - 16 9 - - SSW 1011,4 10 0,0
21.06.2017 18:00:00 33,0 15,3 - - - 15 8 - - SSW 1011,3 10 0,0
21.06.2017 17:00:00 33,2 15,6 - - - 11 6 - - S 1011,8 10 0,0
21.06.2017 16:00:00 32,9 15,1 - - - 15 8 - - S 1012,0 10 0,0
21.06.2017 15:00:00 31,6 17,9 - - - 11 6 - - SSE 1012,9 10 0,0
21.06.2017 14:00:00 31,2 17,7 - - - 16 9 - - SE 1013,7 10 0,0
21.06.2017 13:00:00 29,7 18,1 - - - 13 7 - - SE 1014,3 30 0,0
21.06.2017 12:00:00 27,9 16,8 - - - 13 7 - - SE 1014,8 10 0,0
21.06.2017 11:00:00 25,9 16,8 - - - 13 7 - - ESE 1015,1 10 0,0
21.06.2017 10:00:00 24,0 16,9 24,0 21,0 16,7 11 6 - - ESE 1015,6 10 0,0
21.06.2017 09:00:00 21,5 16,0 - - - 15 8 - - E 1016,1 10 0,0
21.06.2017 08:00:00 19,2 15,5 - - - 13 7 - - E 1016,5 10 0,0
21.06.2017 07:00:00 17,5 14,8 - - - 13 7 - - E 1016,7 10 0,0
21.06.2017 06:00:00 16,4 14,2 - - - 11 6 - - ENE 1016,8 22 0,0
21.06.2017 05:00:00 15,8 14,0 - - - 13 7 - - E 1016,8 10 0,0
21.06.2017 04:00:00 16,1 14,0 - - - 13 7 - - ENE 1017,1 22 0,0
21.06.2017 03:00:00 16,5 14,2 - - - 13 7 - - ENE 1017,5 22 0,0
21.06.2017 02:00:00 17,2 14,6 - - - 15 8 - - E 1017,9 10 0,0
21.06.2017 01:00:00 18,0 15,2 - - - 15 8 - - ENE 1018,2 20 0,0
21.06.2017 00:00:00 19,1 15,4 - - - 16 9 - - E 1018,4 19 0,0
20.06.2017 23:00:00 19,9 14,6 - - - 18 10 - - E 1018,2 10 0,0
20.06.2017 22:00:00 21,4 14,6 - - - 18 10 - - E 1018,0 10 0,0
20.06.2017 21:00:00 23,2 13,9 - - - 22 12 - - ESE 1017,6 10 0,0
20.06.2017 20:00:00 25,7 16,0 - - - 18 10 - - ESE 1017,2 10 0,0
20.06.2017 19:00:00 27,5 14,0 - - - 21 11 - - E 1016,9 10 0,0
20.06.2017 18:00:00 29,2 14,7 - - - 21 11 - - ESE 1016,7 10 0,0
20.06.2017 17:00:00 30,5 14,2 - - - 18 10 - - ESE 1016,8 10 0,0
20.06.2017 16:00:00 30,7 12,5 - - - 13 7 - - SE 1017,0 10 0,0
20.06.2017 15:00:00 30,6 14,1 - - - 11 6 - - SE 1017,4 10 0,0
20.06.2017 14:00:00 29,5 14,0 - - - 15 8 - - ESE 1017,6 10 0,0
20.06.2017 13:00:00 28,7 13,9 - - - 15 8 - - E 1017,9 10 0,0
20.06.2017 12:00:00 27,5 13,7 - - - 16 9 - - ESE 1018,0 10 0,0
20.06.2017 11:00:00 26,4 14,1 - - - 11 6 - - ESE 1018,4 10 0,0
20.06.2017 10:00:00 25,2 14,0 25,7 20,7 16,2 15 8 - - ESE 1018,1 10 0,0
20.06.2017 09:00:00 23,7 16,0 - - - 9 5 - - ESE 1018,0 10 0,0
20.06.2017 08:00:00 22,3 15,9 - - - 5 3 - - E 1018,0 10 0,0
20.06.2017 07:00:00 19,2 16,2 - - - 4 2 - - ESE 1017,8 10 0,0
20.06.2017 06:00:00 17,9 15,3 - - - 2 1 - - NNW 1017,7 10 0,0
20.06.2017 05:00:00 17,1 15,2 - - - 2 1 - - WNW 1017,3 11 0,0
20.06.2017 04:00:00 17,6 15,4 - - - 2 1 - - W 1017,1 11 0,0
20.06.2017 03:00:00 18,6 15,6 - - - 2 1 - - E 1017,3 10 0,0
20.06.2017 02:00:00 19,8 15,9 - - - 2 1 - - E 1017,5 10 0,0
20.06.2017 01:00:00 20,5 16,3 - - - 2 1 - - ESE 1017,7 15 0,0
20.06.2017 00:00:00 22,5 16,4 - - - 5 3 - - SE 1017,8 10 0,0
19.06.2017 23:00:00 24,0 16,1 - - - 5 3 - - S 1017,8 10 0,0

tt = temperature
td = dewpoint
tt 5cm = temperature 5cm
tt -20cm = temperature -20cm
tt -100cm = temperature -100cm
ff = wind speed
fx = gusts
dd = wind direction
ppp = reduced air pressure
vv = visibility
rr = precipitation

Next stations